Flag for Russia Weather past 2 weeks in Novorossiysk, Russia

Now
39 °F

Partly sunny.


Feels Like: 28 °F
Forecast: 45 / 51 °F
Wind: 26 mph from East

Location: Anapa / Vitiazevo

Current Time: Feb 28, 2015 at 9:09:57 AM

Latest Report: Feb 28, 2015 at 8:30 AM


Visibility: 5 mi

Pressure: 29.80 "Hg

Humidity: 87%

Dew point: 36 °F

Location of NovorossiyskLocation

Historic Weather in Novorossiysk — Graph

°F

Novorossiysk temperature yesterday

Maximum temperature yesterday: 66 °F (at 12:30 PM)
Minimum temperature yesterday: 43 °F (at 6:30 AM)
Average temperature yesterday: 56 °F

Past Weeks' High & Low Weather Summary

 TemperatureHumidityPressure
High66 °F (Feb 27, 12:30 PM)100% (Feb 14, 5:00 AM)30.42 "Hg (Feb 14, 5:00 AM)
Low9 °F (Feb 19, 6:30 AM)31% (Feb 24, 12:00 PM)29.80 "Hg (Feb 28, 4:00 AM)
Average36 °F76%30.13 "Hg
* Reported Feb 13 7:00 AM — Feb 28 7:30 AM, Novorossiysk, Weather by CustomWeather, © 2015

Note: Actual official high and low records may vary slightly from our data, if they occured in-between our weather recording intervals... More about our weather records

Advertising

Novorossiysk weather history for previous 24 hours

 ConditionsComfort  
Time TempWeatherWind HumidityBarometerVisibility
7:30 AM
Sat, Feb 28
39 °FClear.17 mph87%29.80 "Hg10 mi
6:30 AM39 °FClear.22 mph87%29.80 "Hg10 mi
6:00 AM39 °FClear.22 mph87%29.80 "Hg10 mi
5:00 AM39 °FClear.24 mph87%29.80 "Hg10 mi
4:00 AM39 °FClear.24 mph87%29.80 "Hg10 mi
3:00 AM41 °FClear.24 mph87%29.83 "Hg10 mi
2:00 AM43 °FClear.24 mph81%29.83 "Hg10 mi
1:00 AM45 °FClear.29 mph81%29.86 "Hg10 mi
12:00 AM48 °FClear.29 mph71%29.86 "Hg10 mi
11:00 PM
Fri, Feb 27
50 °FClear.22 mph71%29.86 "Hg10 mi
10:00 PM52 °FClear.24 mph72%29.92 "Hg10 mi
9:00 PM54 °FClear.20 mph67%29.95 "Hg10 mi
8:00 PM57 °FClear.20 mph59%29.98 "Hg10 mi
7:30 PM59 °FClear.17 mph55%30.01 "Hg10 mi
7:00 PM57 °FSunny.13 mph59%30.01 "Hg10 mi
6:30 PM57 °FSunny.10 mph59%30.01 "Hg10 mi
6:00 PM59 °FSunny.10 mph51%30.01 "Hg10 mi
5:30 PM57 °FSunny.6 mph48%30.04 "Hg10 mi
5:00 PM59 °FSunny.3 mph45%30.04 "Hg10 mi
4:30 PM59 °FSunny.6 mph48%30.07 "Hg10 mi
4:00 PM63 °FSunny.8 mph42%30.07 "Hg10 mi
3:30 PM64 °FSunny.10 mph40%30.07 "Hg10 mi
3:00 PM64 °FPassing clouds.6 mph43%30.07 "HgN/A
2:30 PM64 °FPassing clouds.6 mph43%30.09 "HgN/A
2:00 PM64 °FPassing clouds.8 mph43%30.09 "HgN/A
1:30 PM64 °FSunny.8 mph43%30.09 "Hg10 mi
1:00 PM64 °FPassing clouds.10 mph46%30.12 "HgN/A
12:30 PM66 °FPassing clouds.6 mph37%30.12 "HgN/A
12:00 PM64 °FPassing clouds.6 mph40%30.15 "HgN/A
11:30 AM63 °FSunny.1 mph42%30.15 "Hg10 mi
11:00 AM63 °FPassing clouds.3 mph42%30.15 "HgN/A
10:30 AM63 °FSunny.8 mph42%30.18 "Hg10 mi
10:00 AM61 °FSunny.8 mph45%30.18 "Hg10 mi
9:30 AM59 °FPassing clouds.6 mph48%30.18 "HgN/A
9:00 AM57 °FSunny.6 mph51%30.18 "Hg10 mi
Weather by CustomWeather, © 2015

See weather overviewHow to use our weather pages